When you browse on this site, cookies collect data to enhance your experience and personalize the content and advertising you see.
Visit our Privacy Policy to learn more. By continuing to use the site, you agree to this use of cookies and data.
  • In Österreich
  • Länderverzeichnis
  • Für 7 Tage
  • Wassertemperatur
  • Wetterkarte
  • News
  • Widgets
  • user-avatar
    Anmelden

    Stündliche Wetter Abowian

    Heute, 31 Mai, Sonntag

    Zeit Temperatur Niederschläge Wind Luftdruck Luftfeuchtigkeit
    00:00 +18°C° 0 mm 2 m/S 671 mmHg 41%
    01:00 +17°C° 0 mm 2 m/S 671 mmHg 40%
    02:00 +17°C° 0 mm 2 m/S 671 mmHg 40%
    03:00 +16°C° 0 mm 2 m/S 671 mmHg 39%
    04:00 +17°C° 0 mm 2 m/S 671 mmHg 40%
    05:00 +17°C° 0 mm 2 m/S 672 mmHg 41%
    06:00 +18°C° 0 mm 2 m/S 672 mmHg 43%
    07:00 +19°C° 0 mm 2 m/S 672 mmHg 38%
    08:00 +21°C° 0 mm 2 m/S 673 mmHg 34%
    09:00 +24°C° 0 mm 2 m/S 673 mmHg 29%
    10:00 +25°C° 0 mm 2 m/S 673 mmHg 26%
    11:00 +26°C° 0 mm 2 m/S 673 mmHg 24%
    12:00 +27°C° 0 mm 3 m/S 672 mmHg 21%
    13:00 +27°C° 0 mm 2 m/S 672 mmHg 21%
    14:00 +28°C° 0 mm 2 m/S 672 mmHg 21%
    15:00 +28°C° 0 mm 2 m/S 672 mmHg 21%
    16:00 +28°C° 0 mm 1 m/S 671 mmHg 24%
    17:00 +27°C° 0 mm 1 m/S 671 mmHg 28%
    18:00 +25°C° 0 mm 0 m/S 671 mmHg 32%
    19:00 +25°C° 0 mm 1 m/S 671 mmHg 33%
    20:00 +23°C° 0 mm 1 m/S 671 mmHg 34%
    21:00 +19°C° 0 mm 2 m/S 671 mmHg 35%
    22:00 +19°C° 0 mm 2 m/S 670 mmHg 37%
    23:00 +18°C° 0 mm 2 m/S 670 mmHg 39%

    Morgen, 1 Juni, Montag

    Zeit Temperatur Niederschläge Wind Luftdruck Luftfeuchtigkeit
    00:00 +18°C° 0 mm 2 m/S 670 mmHg 42%
    01:00 +17°C° 0 mm 2 m/S 670 mmHg 43%
    02:00 +17°C° 0 mm 2 m/S 670 mmHg 44%
    03:00 +16°C° 0 mm 2 m/S 669 mmHg 45%
    04:00 +18°C° 0 mm 1 m/S 670 mmHg 47%
    05:00 +19°C° 0 mm 1 m/S 670 mmHg 48%
    06:00 +19°C° 0 mm 1 m/S 670 mmHg 50%
    07:00 +21°C° 0 mm 1 m/S 670 mmHg 44%
    08:00 +23°C° 0 mm 2 m/S 671 mmHg 39%
    09:00 +25°C° 0 mm 2 m/S 671 mmHg 33%
    10:00 +26°C° 0 mm 2 m/S 671 mmHg 31%
    11:00 +27°C° 0 mm 2 m/S 671 mmHg 29%
    12:00 +28°C° 0 mm 2 m/S 671 mmHg 27%
    13:00 +28°C° 0 mm 3 m/S 671 mmHg 26%
    14:00 +29°C° 0 mm 3 m/S 670 mmHg 25%
    15:00 +29°C° 0 mm 3 m/S 670 mmHg 24%
    16:00 +28°C° 0 mm 3 m/S 670 mmHg 28%
    17:00 +28°C° 0 mm 4 m/S 669 mmHg 32%
    18:00 +27°C° 0 mm 4 m/S 669 mmHg 36%
    19:00 +25°C° 0 mm 4 m/S 669 mmHg 36%
    20:00 +24°C° 0 mm 3 m/S 669 mmHg 35%
    21:00 +21°C° 0 mm 3 m/S 669 mmHg 35%
    22:00 +20°C° 0 mm 2 m/S 669 mmHg 37%
    23:00 +19°C° 0 mm 2 m/S 669 mmHg 40%

    übermorgen, 2 Juni, Dienstag

    Zeit Temperatur Niederschläge Wind Luftdruck Luftfeuchtigkeit
    00:00 +19°C° 0 mm 1 m/S 668 mmHg 42%
    01:00 +19°C° 0 mm 1 m/S 668 mmHg 43%
    02:00 +18°C° 0 mm 1 m/S 668 mmHg 44%
    03:00 +18°C° 0 mm 1 m/S 668 mmHg 45%
    04:00 +19°C° 0 mm 1 m/S 668 mmHg 47%
    05:00 +20°C° 0 mm 1 m/S 668 mmHg 48%
    06:00 +20°C° 0 mm 1 m/S 668 mmHg 50%
    07:00 +21°C° 0 mm 2 m/S 668 mmHg 44%
    08:00 +24°C° 0 mm 2 m/S 668 mmHg 39%
    09:00 +26°C° 0 mm 3 m/S 668 mmHg 33%
    10:00 +27°C° 0 mm 3 m/S 668 mmHg 31%
    11:00 +28°C° 0 mm 3 m/S 669 mmHg 29%
    12:00 +30°C° 0 mm 3 m/S 669 mmHg 26%
    13:00 +30°C° 0 mm 5 m/S 669 mmHg 26%
    14:00 +30°C° 0 mm 6 m/S 668 mmHg 25%
    15:00 +32°C° 0 mm 8 m/S 668 mmHg 24%
    16:00 +30°C° 0 mm 7 m/S 668 mmHg 27%
    17:00 +28°C° 0 mm 6 m/S 668 mmHg 30%
    18:00 +27°C° 0 mm 5 m/S 668 mmHg 32%
    19:00 +25°C° 0 mm 4 m/S 668 mmHg 31%
    20:00 +22°C° 0 mm 4 m/S 668 mmHg 31%
    21:00 +20°C° 0 mm 3 m/S 668 mmHg 30%
    22:00 +19°C° 0 mm 3 m/S 668 mmHg 31%
    23:00 +18°C° 0 mm 2 m/S 668 mmHg 32%

    3 Juni, Mittwoch

    Zeit Temperatur Niederschläge Wind Luftdruck Luftfeuchtigkeit
    00:00 +17°C° 0 mm 2 m/S 668 mmHg 34%
    01:00 +18°C° 0 mm 1 m/S 668 mmHg 35%
    02:00 +18°C° 0 mm 1 m/S 668 mmHg 35%
    03:00 +16°C° 0 mm 1 m/S 668 mmHg 36%
    04:00 +18°C° 0 mm 1 m/S 668 mmHg 39%
    05:00 +19°C° 0 mm 1 m/S 668 mmHg 42%
    06:00 +20°C° 0 mm 1 m/S 669 mmHg 45%
    07:00 +21°C° 0 mm 1 m/S 669 mmHg 41%
    08:00 +23°C° 0 mm 2 m/S 669 mmHg 37%
    09:00 +25°C° 0 mm 2 m/S 669 mmHg 32%
    10:00 +25°C° 0 mm 2 m/S 669 mmHg 32%
    11:00 +26°C° 0 mm 2 m/S 669 mmHg 31%
    12:00 +27°C° 0 mm 2 m/S 669 mmHg 30%
    13:00 +27°C° 0.1 mm 2 m/S 669 mmHg 32%
    14:00 +27°C° 0.1 mm 2 m/S 669 mmHg 34%
    15:00 +27°C° 0.1 mm 2 m/S 669 mmHg 36%
    16:00 +26°C° 1.1 mm 2 m/S 668 mmHg 43%
    17:00 +24°C° 1.1 mm 2 m/S 668 mmHg 50%
    18:00 +22°C° 1.1 mm 3 m/S 668 mmHg 57%
    19:00 +20°C° 0 mm 2 m/S 667 mmHg 60%
    20:00 +19°C° 0 mm 2 m/S 667 mmHg 62%
    21:00 +18°C° 0 mm 2 m/S 667 mmHg 65%
    22:00 +17°C° 0 mm 2 m/S 667 mmHg 65%
    23:00 +17°C° 0 mm 2 m/S 668 mmHg 65%

    4 Juni, Donnerstag

    Zeit Temperatur Niederschläge Wind Luftdruck Luftfeuchtigkeit
    00:00 +18°C° 0 mm 1 m/S 668 mmHg 65%
    01:00 +16°C° 0 mm 1 m/S 668 mmHg 65%
    02:00 +16°C° 0 mm 1 m/S 668 mmHg 65%
    03:00 +15°C° 0 mm 1 m/S 668 mmHg 66%
    04:00 +16°C° 0 mm 1 m/S 668 mmHg 63%
    05:00 +18°C° 0 mm 1 m/S 669 mmHg 61%
    06:00 +18°C° 0 mm 2 m/S 669 mmHg 59%
    07:00 +19°C° 0 mm 2 m/S 670 mmHg 52%
    08:00 +21°C° 0 mm 2 m/S 670 mmHg 45%
    09:00 +24°C° 0 mm 2 m/S 670 mmHg 37%
    10:00 +25°C° 0 mm 2 m/S 670 mmHg 34%
    11:00 +26°C° 0 mm 2 m/S 671 mmHg 30%
    12:00 +27°C° 0 mm 2 m/S 671 mmHg 26%
    13:00 +28°C° 0 mm 2 m/S 671 mmHg 26%
    14:00 +28°C° 0 mm 2 m/S 670 mmHg 25%
    15:00 +29°C° 0 mm 2 m/S 670 mmHg 24%
    16:00 +28°C° 0 mm 2 m/S 670 mmHg 27%
    17:00 +28°C° 0 mm 1 m/S 670 mmHg 30%
    18:00 +28°C° 0 mm 1 m/S 670 mmHg 33%
    19:00 +26°C° 0 mm 2 m/S 670 mmHg 34%
    20:00 +23°C° 0 mm 2 m/S 670 mmHg 35%
    21:00 +20°C° 0 mm 2 m/S 670 mmHg 36%
    22:00 +20°C° 0 mm 2 m/S 670 mmHg 37%
    23:00 +19°C° 0 mm 2 m/S 670 mmHg 39%

    5 Juni, Freitag

    Zeit Temperatur Niederschläge Wind Luftdruck Luftfeuchtigkeit
    00:00 +19°C° 0 mm 1 m/S 670 mmHg 41%
    01:00 +18°C° 0 mm 1 m/S 670 mmHg 42%
    02:00 +17°C° 0 mm 2 m/S 670 mmHg 44%
    03:00 +16°C° 0 mm 2 m/S 670 mmHg 46%
    04:00 +18°C° 0 mm 1 m/S 670 mmHg 47%
    05:00 +19°C° 0 mm 1 m/S 671 mmHg 48%
    06:00 +20°C° 0 mm 1 m/S 671 mmHg 50%
    07:00 +22°C° 0 mm 1 m/S 671 mmHg 44%
    08:00 +23°C° 0 mm 1 m/S 672 mmHg 39%
    09:00 +25°C° 0 mm 1 m/S 672 mmHg 33%
    10:00 +26°C° 0 mm 2 m/S 672 mmHg 30%
    11:00 +28°C° 0 mm 2 m/S 672 mmHg 27%
    12:00 +29°C° 0 mm 2 m/S 673 mmHg 24%
    13:00 +29°C° 0 mm 2 m/S 672 mmHg 23%
    14:00 +30°C° 0 mm 2 m/S 672 mmHg 23%
    15:00 +30°C° 0 mm 2 m/S 672 mmHg 23%
    16:00 +30°C° 0 mm 2 m/S 672 mmHg 26%
    17:00 +29°C° 0 mm 3 m/S 671 mmHg 29%
    18:00 +28°C° 0 mm 3 m/S 671 mmHg 32%
    19:00 +26°C° 0 mm 3 m/S 671 mmHg 33%
    20:00 +24°C° 0 mm 3 m/S 671 mmHg 33%
    21:00 +21°C° 0 mm 2 m/S 671 mmHg 34%
    22:00 +20°C° 0 mm 2 m/S 671 mmHg 36%
    23:00 +19°C° 0 mm 2 m/S 671 mmHg 38%
    Mehr zeigen